Weather History for Forest City, IA

Change the Weather History Date:

Tuesday, April 23, 2013

  Actual Average Record
Temperature  
Mean Temperature 36 °F -  
Max Temperature 41 °F 60 °F 62 °F (2012)
Min Temperature 32 °F 39 °F 32 °F (2012)
Degree Days  
Heating Degree Days 28    
Moisture  
Dew Point 28 °F    
Average Humidity 78    
Maximum Humidity 93    
Minimum Humidity 56    
Precipitation  
Precipitation 0.00 in - - ()
Sea Level Pressure  
Sea Level Pressure 30.10 in    
Wind  
Wind Speed 17 mph (NNW)    
Max Wind Speed 23 mph    
Max Gust Speed 31 mph    
Visibility 10 miles    
Events Snow    
Averages and records for this station are not official NWS values.
T = Trace of Precipitation, MM = Missing Value Source: NWS Daily Summary

Daily Weather History Graph

Daily Weather History Graph

Search for Another Location

Airport:

Trip Planner

Search our weather history database for the weather conditions in past years. The results will help you decide how hot, cold, wet, or windy it might be!

Date:

Astronomy

Apr. 23, 2013 Rise Set
Actual Time 6:19 AM CDT 8:07 PM CDT
Civil Twilight 5:48 AM CDT 8:37 PM CDT
Nautical Twilight 5:11 AM CDT 9:14 PM CDT
Astronomical Twilight 4:31 AM CDT 9:54 PM CDT
Moon 6:00 PM CDT (4/23) 4:51 AM CDT (4/23)
Length of Visible Light 14h 48m
Length of Day
13h 47m
Waxing Gibbous, 94% of the Moon is Illuminated
Apr 23
Waxing Gibbous
Apr 25
Full
May 2
Last Quarter
May 9
New
May 17
First Quarter

Hourly Weather History & Observations

Time (CDT) Temp. Windchill Dew Point Humidity Pressure Visibility Wind Dir Wind Speed Gust Speed Precip Events Conditions
12:15 AM 33.8 °F 22.8 °F 32.0 °F 93% 30.06 in 5.0 mi North 18.4 mph 21.9 mph N/A   Overcast
12:35 AM 33.8 °F 23.2 °F 32.0 °F 93% 30.07 in 10.0 mi NNW 17.3 mph 25.3 mph N/A   Overcast
12:55 AM 33.8 °F 21.6 °F 32.0 °F 93% 30.09 in 4.0 mi NNW 23.0 mph 27.6 mph N/A Snow Light Snow
1:15 AM 33.8 °F 21.6 °F 32.0 °F 93% 30.08 in 7.0 mi NNW 23.0 mph 28.8 mph N/A   Overcast
1:35 AM 33.8 °F 21.9 °F 32.0 °F 93% 30.07 in 10.0 mi NNW 21.9 mph 31.1 mph N/A   Overcast
1:55 AM 33.8 °F 22.8 °F 32.0 °F 93% 30.10 in 10.0 mi NNW 18.4 mph 28.8 mph N/A   Overcast
2:15 AM 33.8 °F 22.8 °F 32.0 °F 93% 30.11 in 10.0 mi NNW 18.4 mph 26.5 mph N/A   Overcast
2:35 AM 33.8 °F 22.8 °F 32.0 °F 93% 30.09 in 10.0 mi NNW 18.4 mph 25.3 mph N/A   Overcast
2:55 AM 33.8 °F 22.5 °F 32.0 °F 93% 30.09 in 10.0 mi NNW 19.6 mph 27.6 mph N/A   Overcast
3:15 AM 33.8 °F 21.9 °F 32.0 °F 93% 30.10 in 10.0 mi NNW 21.9 mph 27.6 mph N/A   Overcast
3:35 AM 33.8 °F 22.5 °F 32.0 °F 93% 30.07 in 10.0 mi NNW 19.6 mph 27.6 mph N/A   Overcast
3:55 AM 33.8 °F 21.6 °F 30.2 °F 87% 30.08 in 10.0 mi North 23.0 mph 28.8 mph N/A   Overcast
4:15 AM 33.8 °F 22.2 °F 30.2 °F 87% 30.10 in 10.0 mi NNW 20.7 mph 31.1 mph N/A   Overcast
4:35 AM 33.8 °F 22.8 °F 30.2 °F 87% 30.11 in 10.0 mi NNW 18.4 mph 26.5 mph N/A   Overcast
4:55 AM 32.0 °F 21.2 °F 30.2 °F 93% 30.14 in 10.0 mi NW 16.1 mph 24.2 mph N/A   Overcast
5:15 AM 32.0 °F 20.8 °F 30.2 °F 93% 30.11 in 10.0 mi NNW 17.3 mph 21.9 mph N/A   Overcast
5:35 AM 32.0 °F 21.6 °F 30.2 °F 93% 30.12 in 10.0 mi NNW 15.0 mph 23.0 mph N/A   Overcast
5:55 AM 32.0 °F 22.1 °F 28.4 °F 87% 30.12 in 10.0 mi NW 13.8 mph 23.0 mph N/A   Overcast
6:15 AM 32.0 °F 20.5 °F 28.4 °F 87% 30.11 in 10.0 mi NNW 18.4 mph 24.2 mph N/A   Overcast
6:35 AM 32.0 °F 20.5 °F 28.4 °F 87% 30.11 in 10.0 mi NNW 18.4 mph 24.2 mph N/A   Overcast
6:55 AM 32.0 °F 20.5 °F 28.4 °F 87% 30.12 in 10.0 mi NNW 18.4 mph 25.3 mph N/A   Overcast
7:15 AM 32.0 °F 21.2 °F 28.4 °F 87% 30.12 in 10.0 mi NNW 16.1 mph 20.7 mph N/A   Overcast
7:35 AM 32.0 °F 21.2 °F 28.4 °F 87% 30.11 in 10.0 mi NNW 16.1 mph 20.7 mph N/A   Overcast
7:55 AM 32.0 °F 20.1 °F 26.6 °F 80% 30.11 in 10.0 mi NNW 19.6 mph - N/A   Overcast
8:15 AM 32.0 °F 21.2 °F 26.6 °F 80% 30.13 in 10.0 mi NNW 16.1 mph 20.7 mph N/A   Overcast
8:35 AM 32.0 °F 21.6 °F 26.6 °F 80% 30.13 in 10.0 mi NNW 15.0 mph 20.7 mph N/A   Overcast
8:55 AM 32.0 °F 20.8 °F 26.6 °F 80% 30.13 in 10.0 mi NNW 17.3 mph 25.3 mph N/A   Overcast
9:15 AM 32.0 °F 21.2 °F 26.6 °F 80% 30.13 in 10.0 mi NNW 16.1 mph 26.5 mph N/A   Overcast
9:35 AM 32.0 °F 21.2 °F 26.6 °F 80% 30.13 in 10.0 mi NNW 16.1 mph 20.7 mph N/A   Mostly Cloudy
9:55 AM 32.0 °F 21.6 °F 26.6 °F 80% 30.13 in 10.0 mi NNW 15.0 mph 19.6 mph N/A   Scattered Clouds
10:15 AM 32.0 °F 21.6 °F 28.4 °F 87% 30.13 in 10.0 mi North 15.0 mph 19.6 mph N/A   Clear
10:35 AM 32.0 °F 22.1 °F 28.4 °F 87% 30.13 in 10.0 mi NNW 13.8 mph 18.4 mph N/A   Scattered Clouds
10:55 AM 33.8 °F 23.9 °F 28.4 °F 81% 30.13 in 10.0 mi NNW 15.0 mph - N/A   Scattered Clouds
11:15 AM 33.8 °F 25.3 °F 28.4 °F 81% 30.13 in 10.0 mi NNW 11.5 mph - N/A   Scattered Clouds
11:35 AM 33.8 °F 24.8 °F 28.4 °F 81% 30.13 in 10.0 mi NNW 12.7 mph - N/A   Scattered Clouds
11:55 AM 33.8 °F 24.3 °F 28.4 °F 81% 30.13 in 10.0 mi NW 13.8 mph - N/A   Mostly Cloudy
12:15 PM 35.6 °F 27.5 °F 30.2 °F 81% 30.13 in 10.0 mi NNW 11.5 mph 18.4 mph N/A   Scattered Clouds
12:35 PM 35.6 °F 27.1 °F 30.2 °F 81% 30.13 in 10.0 mi NNW 12.7 mph - N/A   Scattered Clouds
12:55 PM 37.4 °F 28.9 °F 30.2 °F 75% 30.12 in 10.0 mi North 13.8 mph - N/A   Scattered Clouds
1:15 PM 37.4 °F 29.3 °F 30.2 °F 75% 30.11 in 10.0 mi North 12.7 mph 19.6 mph N/A   Scattered Clouds
1:35 PM 37.4 °F 28.5 °F 30.2 °F 75% 30.12 in 10.0 mi NNW 15.0 mph 23.0 mph N/A   Scattered Clouds
1:55 PM 37.4 °F 28.9 °F 28.4 °F 70% 30.10 in 10.0 mi NNW 13.8 mph 20.7 mph N/A   Scattered Clouds
2:15 PM 39.2 °F 30.5 °F 30.2 °F 70% 30.10 in 10.0 mi NW 16.1 mph - N/A   Scattered Clouds
2:35 PM 39.2 °F 29.8 °F 28.4 °F 65% 30.10 in 10.0 mi NW 18.4 mph 26.5 mph N/A   Scattered Clouds
2:55 PM 39.2 °F 30.2 °F 28.4 °F 65% 30.09 in 10.0 mi NNW 17.3 mph 24.2 mph N/A   Scattered Clouds
3:15 PM 39.2 °F 30.8 °F 28.4 °F 65% 30.09 in 10.0 mi NNW 15.0 mph 24.2 mph N/A   Scattered Clouds
3:35 PM 41.0 °F 32.5 °F 28.4 °F 61% 30.09 in 10.0 mi NNW 17.3 mph 25.3 mph N/A   Scattered Clouds
3:55 PM 39.2 °F 29.8 °F 26.6 °F 61% 30.09 in 10.0 mi NW 18.4 mph 25.3 mph N/A   Scattered Clouds
4:15 PM 41.0 °F 32.2 °F 26.6 °F 57% 30.08 in 10.0 mi NNW 18.4 mph 25.3 mph N/A   Mostly Cloudy
4:35 PM 39.2 °F 30.5 °F 26.6 °F 61% 30.08 in 10.0 mi NNW 16.1 mph 24.2 mph N/A   Mostly Cloudy
4:55 PM 37.4 °F 28.9 °F 23.0 °F 56% 30.09 in 10.0 mi NNW 13.8 mph 20.7 mph N/A   Scattered Clouds
5:15 PM 39.2 °F 30.5 °F 24.8 °F 56% 30.08 in 10.0 mi NW 16.1 mph 21.9 mph N/A   Scattered Clouds
5:35 PM 37.4 °F 28.5 °F 26.6 °F 65% 30.08 in 10.0 mi North 15.0 mph 20.7 mph N/A   Mostly Cloudy
5:55 PM 37.4 °F 28.2 °F 23.0 °F 56% 30.08 in 10.0 mi NNW 16.1 mph 23.0 mph N/A   Mostly Cloudy
6:15 PM 37.4 °F 28.9 °F 23.0 °F 56% 30.08 in 10.0 mi NNW 13.8 mph - N/A   Mostly Cloudy
6:35 PM 37.4 °F 28.9 °F 23.0 °F 56% 30.08 in 10.0 mi NNW 13.8 mph - N/A   Mostly Cloudy
6:55 PM 37.4 °F 28.5 °F 23.0 °F 56% 30.08 in 10.0 mi NW 15.0 mph 18.4 mph N/A   Mostly Cloudy
7:15 PM 37.4 °F 28.5 °F 23.0 °F 56% 30.08 in 10.0 mi NNW 15.0 mph - N/A   Overcast
7:35 PM 35.6 °F 27.5 °F 23.0 °F 60% 30.08 in 10.0 mi NW 11.5 mph - N/A   Mostly Cloudy
7:55 PM 35.6 °F 27.5 °F 24.8 °F 65% 30.08 in 10.0 mi NNW 11.5 mph 16.1 mph N/A   Mostly Cloudy
8:15 PM 35.6 °F 27.5 °F 23.0 °F 60% 30.09 in 10.0 mi NW 11.5 mph - N/A   Scattered Clouds
8:35 PM 35.6 °F 30.7 °F 23.0 °F 60% 30.09 in 10.0 mi NW 5.8 mph - N/A   Clear
8:55 PM 33.8 °F 25.8 °F 26.6 °F 75% 30.09 in 10.0 mi WNW 10.4 mph - N/A   Clear
9:15 PM 33.8 °F 26.4 °F 28.4 °F 81% 30.10 in 10.0 mi NW 9.2 mph - N/A   Clear
9:35 PM 33.8 °F 26.4 °F 28.4 °F 81% 30.09 in 10.0 mi NW 9.2 mph - N/A   Clear
9:55 PM 33.8 °F 25.8 °F 26.6 °F 75% 30.10 in 10.0 mi NW 10.4 mph - N/A   Clear
10:15 PM 32.0 °F 24.2 °F 26.6 °F 80% 30.10 in 10.0 mi NW 9.2 mph 17.3 mph N/A   Clear
10:35 PM 32.0 °F 23.0 °F 26.6 °F 80% 30.10 in 10.0 mi NW 11.5 mph 17.3 mph N/A   Clear
10:55 PM 32.0 °F 24.2 °F 26.6 °F 80% 30.10 in 10.0 mi NW 9.2 mph 16.1 mph N/A   Clear
11:15 PM 32.0 °F 23.0 °F 26.6 °F 80% 30.09 in 10.0 mi NW 11.5 mph - N/A   Clear
11:35 PM 32.0 °F 24.2 °F 26.6 °F 80% 30.09 in 10.0 mi NW 9.2 mph - N/A   Clear
11:55 PM 32.0 °F 23.0 °F 26.6 °F 80% 30.09 in 10.0 mi NW 11.5 mph - N/A   Clear